STARLINK-4497, 53411

Orbit data source: Space-Track

STARLINK-4497, 53411 is a payload satellite owned by SpaceX/Seattle (US) in LEO that was launched on Wed, 10 Aug 2022 UTC via an FALCON 9 launch vehicle from the Air Force Eastern Test Range (AFETR). Payload-class satellites include a variety of spacecraft equipped with specific instruments for various scientific and technological missions. These include communications satellites like Starlink; space stations such as the ISS; scientific satellites like the Hubble; Earth observation satellites from companies like Planet Labs, Umbra, and HawkEye 360; GPS; miniature CubeSats for education and research; and military/defense satellites.

Loading next visibility...
Identifier
53411, 2022-097Z
Orbit
LEO
Country
Flag of USUS
Related business
Manufacturer
SpaceX/Seattle
Mission
Operational Commercial Communications
Bus & Motor
STARLINK, Unknown motor
Mass
297 kg wet, ~275 kg dry
Launch date (UTC)
2022-08-10 (4 years ago)
Launch vehicle
FALCON 9
Launch site
Air Force Eastern Test Range (AFETR)
Object type
Payload
Rocket body
Debris
Shape & HBR
Box + 1 Pan, 10.1 m
Radar Cross Section
13.562 m², Large (>1 m²)

Expand to show TLE details & history
Last TLE update: 19 hours ago

TLE from 19 hours ago
0 STARLINK-4497
1 53411U 22097Z   26144.23066792  .00000222  00000-0  32016-4 0  9998
2 53411  53.2159 135.0042 0001111  72.7800 287.3314 15.08839774210052
Epoch: 2026-05-24T05:32Z
TLE epoch observation values (Epoch: 2026-05-24T05:32:09.708Z)
Latitude
0.00001°
Longitude
170.12797°
Altitude
540.413 km
Speed
7.593 km/s
True Right ascension
09h 00m 01s
True Declination
0° 00' 00"
Sunlit
Object was in daylight at epoch
Visualization orbit readout
Latitude
Unknown
Longitude
Unknown
Altitude
Unknown
Speed
Unknown
Apparent Right ascension
Unknown
Apparent Declination
Unknown
Sunlit
N/A
Visualization observer readout
Local Sidereal Time
10:02:14
Azimuth
Unknown
Elevation
Unknown
Doppler factor
Unknown
Orbital elements
Apogee altitude
540.758 km
Perigee altitude
539.221 km
Semi-major axis
6,918.126 km
Eccentricity
0.00011
Inclination
53.2159°
RAAN
135.0042°
Arg. of periapsis
72.78°
True anomaly
287.31925°
Mean anomaly
287.3314°
Eccentric anomaly
287.32532°
Mean motion
3.7719 °/min
Orbital period
95.44 mins
BSTAR
0.000032016
Loading maneuver chart data...
Computing Atmospheric mass density...
Loading historical data...
Loading historical data...
Loading historical data...
Loading historical data...
Loading historical data...
Loading historical data...
Loading historical data...

Documentation

Showing up to 5 results
|